| time (UTC) | temp F | wind direction | speed MPH | gust MPH | rain 1hr in | rain 24hr in | rain mn in | humidity % | barometer mb |
| 20260831081404 | 65 | 175 | 6.0 | 17.0 | 0.00 | 0.11 | 0.01 | 86 | 1008.3 |
| 20260831080404 | 65 | 172 | 6.0 | 16.0 | 0.00 | 0.11 | 0.01 | 86 | 1008.4 |
| 20260831075404 | 65 | 186 | 7.0 | 19.0 | 0.00 | 0.12 | 0.01 | 86 | 1008.4 |
| 20260831073404 | 65 | 193 | 4.0 | 11.0 | 0.00 | 0.12 | 0.01 | 87 | 1008.4 |
| 20260831071404 | 65 | 145 | 6.0 | 12.0 | 0.00 | 0.12 | 0.01 | 88 | 1008.3 |
| 20260831070404 | 64 | 178 | 5.0 | 12.0 | 0.00 | 0.12 | 0.01 | 88 | 1008.3 |
| 20260831065404 | 64 | 197 | 3.0 | 12.0 | 0.00 | 0.12 | 0.01 | 89 | 1008.2 |
| 20260831064404 | 64 | 222 | 4.0 | 10.0 | 0.00 | 0.12 | 0.01 | 90 | 1008.2 |
| 20260831063404 | 63 | 187 | 4.0 | 10.0 | 0.00 | 0.12 | 0.01 | 91 | 1008.1 |
| 20260831062404 | 63 | 140 | 4.0 | 8.0 | 0.00 | 0.12 | 0.01 | 92 | 1008.1 |
| 20260831055404 | 61 | 188 | 4.0 | 9.0 | 0.00 | 0.13 | 0.01 | 93 | 1008.0 |
| 20260831053404 | 61 | 155 | 3.0 | 8.0 | 0.00 | 0.13 | 0.01 | 93 | 1008.1 |
| 20260831052404 | 61 | 213 | 2.0 | 7.0 | 0.00 | 0.13 | 0.01 | 93 | 1008.0 |
| 20260831051405 | 61 | 171 | 3.0 | 6.0 | 0.00 | 0.13 | 0.01 | 94 | 1008.0 |
| 20260831045404 | 61 | 168 | 3.0 | 6.0 | 0.01 | 0.13 | 0.01 | 94 | 1008.0 |
| 20260831043404 | 61 | 146 | 3.0 | 6.0 | 0.01 | 0.13 | 0.01 | 93 | 1008.1 |
| 20260831042409 | 61 | 163 | 3.0 | 7.0 | 0.01 | 0.13 | 0.01 | 93 | 1008.0 |
| 20260831034409 | 61 | 148 | 3.0 | 7.0 | 0.00 | 0.13 | 0.00 | 94 | 1008.1 |
| 20260831033409 | 61 | 169 | 3.0 | 5.0 | 0.00 | 0.13 | 0.00 | 94 | 1008.2 |
| 20260831032409 | 61 | 170 | 3.0 | 7.0 | 0.00 | 0.13 | 0.00 | 94 | 1008.1 |
| 20260831030409 | 61 | 173 | 4.0 | 9.0 | 0.00 | 0.13 | 0.00 | 94 | 1008.2 |
| 20260831025409 | 61 | 155 | 4.0 | 10.0 | 0.00 | 0.13 | 0.00 | 94 | 1008.2 |
| 20260831024409 | 60 | 161 | 4.0 | 7.0 | 0.00 | 0.13 | 0.00 | 95 | 1008.4 |
| 20260831023409 | 60 | 171 | 4.0 | 7.0 | 0.00 | 0.13 | 0.00 | 95 | 1008.5 |
| 20260831022409 | 60 | 165 | 3.0 | 6.0 | 0.00 | 0.13 | 0.00 | 95 | 1008.4 |
| 20260831021410 | 60 | 168 | 3.0 | 7.0 | 0.00 | 0.13 | 0.00 | 95 | 1008.3 |
| 20260831020409 | 60 | 167 | 3.0 | 6.0 | 0.00 | 0.13 | 0.00 | 95 | 1008.6 |
| 20260831015409 | 61 | 162 | 4.0 | 9.0 | 0.00 | 0.14 | 0.00 | 95 | 1008.6 |
| 20260831014409 | 61 | 173 | 3.0 | 7.0 | 0.00 | 0.14 | 0.00 | 95 | 1008.7 |
| 20260831013409 | 61 | 152 | 3.0 | 8.0 | 0.00 | 0.14 | 0.00 | 96 | 1008.8 |
| 20260831012409 | 61 | 150 | 3.0 | 6.0 | 0.00 | 0.14 | 0.00 | 96 | 1009.0 |
| 20260831010409 | 61 | 159 | 4.0 | 7.0 | 0.00 | 0.14 | 0.00 | 96 | 1009.3 |
| 20260831005409 | 61 | 165 | 4.0 | 7.0 | 0.00 | 0.14 | 0.00 | 96 | 1009.3 |
| 20260831004410 | 61 | 161 | 3.0 | 8.0 | 0.00 | 0.14 | 0.00 | 97 | 1009.3 |
| 20260831003409 | 61 | 144 | 3.0 | 5.0 | 0.00 | 0.14 | 0.00 | 97 | 1009.4 |
| 20260831002410 | 61 | 146 | 2.0 | 4.0 | 0.00 | 0.14 | 0.00 | 97 | 1009.3 |
| 20260831001411 | 61 | 156 | 2.0 | 5.0 | 0.00 | 0.14 | 0.00 | 97 | 1009.5 |
| 20260831000410 | 61 | 144 | 3.0 | 6.0 | 0.00 | 0.14 | 0.00 | 96 | 1009.5 |
| 20260830235409 | 60 | 161 | 2.0 | 5.0 | 0.00 | 0.14 | 0.00 | 96 | 1009.6 |
| 20260830234409 | 61 | 151 | 2.0 | 3.0 | 0.00 | 0.14 | 0.00 | 97 | 1009.6 |
| 20260830232409 | 61 | 161 | 2.0 | 5.0 | 0.00 | 0.14 | 0.00 | 97 | 1010.0 |
| 20260830231410 | 62 | 159 | 2.0 | 5.0 | 0.00 | 0.14 | 0.00 | 97 | 1010.1 |
| 20260830230409 | 62 | 174 | 2.0 | 4.0 | 0.00 | 0.14 | 0.00 | 97 | 1010.2 |
| 20260830225409 | 62 | 144 | 3.0 | 5.0 | 0.00 | 0.15 | 0.00 | 97 | 1010.3 |
| 20260830224410 | 62 | 149 | 2.0 | 4.0 | 0.00 | 0.15 | 0.00 | 97 | 1010.5 |
| 20260830223409 | 62 | 145 | 2.0 | 3.0 | 0.00 | 0.15 | 0.00 | 97 | 1010.6 |
| 20260830222409 | 62 | 153 | 1.0 | 3.0 | 0.00 | 0.15 | 0.00 | 97 | 1010.8 |
| 20260830221410 | 62 | 155 | 2.0 | 3.0 | 0.00 | 0.15 | 0.00 | 97 | 1010.8 |
| 20260830220410 | 62 | 148 | 2.0 | 4.0 | 0.00 | 0.15 | 0.00 | 97 | 1010.8 |
| 20260830215410 | 62 | 151 | 2.0 | 3.0 | 0.00 | 0.17 | 0.17 | 97 | 1010.9 |
| 20260830214409 | 62 | 152 | 2.0 | 3.0 | 0.00 | 0.17 | 0.17 | 97 | 1010.8 |
| 20260830213410 | 62 | 155 | 2.0 | 4.0 | 0.00 | 0.17 | 0.17 | 96 | 1010.9 |
| 20260830212410 | 62 | 161 | 1.0 | 4.0 | 0.00 | 0.17 | 0.17 | 96 | 1011.0 |
| 20260830211410 | 62 | 161 | 1.0 | 4.0 | 0.00 | 0.17 | 0.17 | 96 | 1011.0 |
| 20260830210410 | 62 | 162 | 2.0 | 4.0 | 0.00 | 0.17 | 0.17 | 96 | 1011.0 |
| 20260830204409 | 62 | 160 | 1.0 | 4.0 | 0.00 | 0.18 | 0.17 | 96 | 1011.1 |
| 20260830203410 | 62 | 159 | 2.0 | 4.0 | 0.00 | 0.18 | 0.17 | 96 | 1011.2 |
| 20260830202410 | 62 | 161 | 2.0 | 4.0 | 0.00 | 0.18 | 0.17 | 96 | 1011.2 |
| 20260830201410 | 62 | 179 | 0.0 | 2.0 | 0.00 | 0.18 | 0.17 | 96 | 1011.3 |
| 20260830200409 | 62 | 179 | 0.0 | 1.0 | 0.00 | 0.18 | 0.17 | 96 | 1011.4 |
| 20260830195410 | 63 | 179 | 1.0 | 2.0 | 0.00 | 0.18 | 0.17 | 96 | 1011.5 |
| 20260830194409 | 63 | 179 | 1.0 | 2.0 | 0.00 | 0.18 | 0.17 | 95 | 1011.5 |
| 20260830193411 | 63 | 179 | 2.0 | 3.0 | 0.00 | 0.18 | 0.17 | 95 | 1011.5 |
| 20260830191410 | 63 | 186 | 1.0 | 2.0 | 0.00 | 0.18 | 0.17 | 95 | 1011.6 |
| 20260830190410 | 63 | 188 | 1.0 | 2.0 | 0.00 | 0.18 | 0.17 | 95 | 1011.6 |
| 20260830185410 | 63 | 198 | 1.0 | 3.0 | 0.00 | 0.18 | 0.17 | 95 | 1011.6 |
| 20260830184410 | 63 | 204 | 1.0 | 3.0 | 0.00 | 0.18 | 0.17 | 94 | 1011.5 |
| 20260830182410 | 64 | 223 | 1.0 | 5.0 | 0.00 | 0.18 | 0.17 | 94 | 1011.5 |
| 20260830181410 | 64 | 239 | 2.0 | 6.0 | 0.00 | 0.18 | 0.17 | 94 | 1011.5 |
| 20260830175410 | 64 | 217 | 2.0 | 5.0 | 0.02 | 0.18 | 0.17 | 94 | 1011.3 |
| 20260830174410 | 64 | 221 | 2.0 | 5.0 | 0.02 | 0.18 | 0.17 | 94 | 1011.2 |
| 20260830173410 | 64 | 222 | 3.0 | 9.0 | 0.02 | 0.18 | 0.17 | 93 | 1011.2 |
| 20260830172410 | 65 | 194 | 3.0 | 7.0 | 0.02 | 0.18 | 0.17 | 93 | 1011.2 |
| 20260830170410 | 67 | 265 | 2.0 | 6.0 | 0.02 | 0.17 | 0.17 | 90 | 1011.2 |
| 20260830124407 | 68 | 165 | 3.0 | 11.0 | 0.01 | 0.19 | 0.15 | 92 | 1009.8 |
| 20260830123407 | 68 | 164 | 5.0 | 11.0 | 0.04 | 0.19 | 0.15 | 93 | 1009.7 |
| 20260830122407 | 67 | 171 | 3.0 | 10.0 | 0.08 | 0.19 | 0.15 | 94 | 1009.7 |
| 20260830121407 | 67 | 175 | 4.0 | 9.0 | 0.08 | 0.19 | 0.15 | 94 | 1009.5 |
| 20260830120407 | 67 | 180 | 2.0 | 7.0 | 0.08 | 0.19 | 0.15 | 94 | 1009.5 |
| 20260830113406 | 67 | 209 | 3.0 | 9.0 | 0.04 | 0.15 | 0.11 | 89 | 1009.4 |
| 20260830112407 | 69 | 250 | 3.0 | 11.0 | 0.00 | 0.11 | 0.07 | 87 | 1009.2 |
| 20260830111407 | 70 | 202 | 5.0 | 12.0 | 0.00 | 0.11 | 0.07 | 85 | 1009.0 |
| 20260830110405 | 70 | 208 | 7.0 | 14.0 | 0.00 | 0.11 | 0.07 | 84 | 1008.8 |
| 20260830105405 | 69 | 175 | 7.0 | 14.0 | 0.00 | 0.11 | 0.07 | 85 | 1008.7 |
| 20260830103404 | 69 | 215 | 5.0 | 14.0 | 0.00 | 0.11 | 0.07 | 86 | 1008.6 |
| 20260830102404 | 69 | 182 | 5.0 | 11.0 | 0.00 | 0.11 | 0.07 | 86 | 1008.6 |
| 20260830101405 | 69 | 150 | 8.0 | 15.0 | 0.00 | 0.11 | 0.07 | 87 | 1008.5 |
| 20260830100406 | 69 | 136 | 4.0 | 12.0 | 0.00 | 0.11 | 0.07 | 87 | 1008.4 |
| 20260830095405 | 69 | 202 | 7.0 | 19.0 | 0.00 | 0.11 | 0.07 | 87 | 1008.3 |
| 20260830094404 | 68 | 214 | 6.0 | 18.0 | 0.00 | 0.11 | 0.07 | 89 | 1008.2 |
| 20260830093404 | 68 | 181 | 6.0 | 14.0 | 0.00 | 0.11 | 0.07 | 90 | 1008.1 |
| 20260830092404 | 67 | 306 | 3.0 | 8.0 | 0.00 | 0.11 | 0.07 | 91 | 1008.0 |
| 20260830091404 | 66 | 182 | 5.0 | 14.0 | 0.00 | 0.11 | 0.07 | 91 | 1007.9 |
| 20260830090404 | 66 | 130 | 6.0 | 14.0 | 0.01 | 0.11 | 0.07 | 92 | 1007.8 |
| 20260830085404 | 66 | 174 | 5.0 | 12.0 | 0.01 | 0.11 | 0.07 | 93 | 1007.6 |
| 20260830084404 | 65 | 194 | 6.0 | 14.0 | 0.01 | 0.11 | 0.07 | 94 | 1007.3 |
| 20260830083405 | 65 | 196 | 5.0 | 11.0 | 0.01 | 0.11 | 0.07 | 95 | 1007.3 |